Flag for India Weather past 2 weeks in Mumbai, Maharashtra, India

Now
90 °F

Haze.


Feels Like: 108 °F
Forecast: 83 / 88 °F
Wind: 7 mph from West

Location: Bombay / Santacruz

Current Time: Apr 21, 2015 at 5:50:28 PM

Latest Report: Apr 21, 2015 at 5:10 PM


Visibility: 2 mi

Pressure: 29.74 "Hg

Humidity: 75%

Dew point: 81 °F

Location of MumbaiLocation

Historic Weather in Mumbai — Graph

°F

Mumbai temperature yesterday

Maximum temperature yesterday: 93 °F (at 10:40 AM)
Minimum temperature yesterday: 84 °F (at 3:10 AM)
Average temperature yesterday: 88 °F

Past Weeks' High & Low Weather Summary

 TemperatureHumidityPressure
High93 °F (Apr 16, 11:40 AM)89% (Apr 10, 6:40 AM)29.95 "Hg (Apr 10, 6:40 AM)
Low77 °F (Apr 15, 2:10 AM)41% (Apr 17, 3:40 PM)29.68 "Hg (Apr 18, 4:40 PM)
Average85 °F71%29.82 "Hg
* Reported Apr 6 4:40 PM — Apr 21 4:40 PM, Mumbai, Weather by CustomWeather, © 2015

Note: Actual official high and low records may vary slightly from our data, if they occured in-between our weather recording intervals... More about our weather records

Advertising

Mumbai weather history for previous 24 hours

 ConditionsComfort  
Time TempWeatherWind HumidityBarometerVisibility
4:40 PM
Tue, Apr 21
88 °FHaze.7 mph70%29.74 "Hg2 mi
4:10 PM90 °FHaze.15 mph67%29.74 "Hg2 mi
3:40 PM88 °FHaze.13 mph66%29.77 "Hg2 mi
3:10 PM90 °FHaze.12 mph67%29.77 "Hg2 mi
2:40 PM90 °FHaze.16 mph59%29.77 "Hg2 mi
2:10 PM91 °FHaze.14 mph67%29.80 "Hg2 mi
1:40 PM93 °FHaze.12 mph59%29.80 "Hg2 mi
1:10 PM91 °FHaze.13 mph63%29.80 "Hg2 mi
12:40 PM91 °FHaze.10 mph71%29.83 "Hg2 mi
12:10 PM91 °FHaze.13 mph71%29.83 "Hg2 mi
11:40 AM93 °FHaze.12 mph67%29.83 "Hg2 mi
11:10 AM93 °FHaze.5 mph63%29.83 "Hg2 mi
10:40 AM91 °FHaze.3 mph67%29.86 "Hg2 mi
10:10 AM91 °FHaze.7 mph71%29.86 "Hg2 mi
9:40 AM90 °FHaze.6 mph75%29.86 "Hg2 mi
8:40 AM88 °FHaze.6 mph79%29.86 "Hg2 mi
8:10 AM88 °FHaze.6 mph79%29.86 "Hg2 mi
7:40 AM86 °FHaze.5 mph79%29.83 "Hg2 mi
7:10 AM86 °FScattered clouds.5 mph79%29.83 "Hg2 mi
6:10 AM86 °FPassing clouds.3 mph70%29.80 "Hg2 mi
5:40 AM86 °FHaze.6 mph75%29.80 "Hg2 mi
5:10 AM84 °FHaze.7 mph84%29.77 "Hg2 mi
4:40 AM84 °FHaze.5 mph84%29.77 "Hg2 mi
4:10 AM84 °FHaze.5 mph84%29.77 "Hg2 mi
3:10 AM84 °FHaze.3 mph89%29.77 "Hg2 mi
2:40 AM84 °FHaze.6 mph89%29.77 "Hg2 mi
2:10 AM84 °FHaze.5 mph89%29.80 "Hg2 mi
1:40 AM84 °FHaze.6 mph89%29.80 "Hg2 mi
1:10 AM86 °FHaze.12 mph84%29.80 "Hg2 mi
12:40 AM86 °FHaze.6 mph84%29.80 "Hg2 mi
12:10 AM86 °FHaze.8 mph84%29.80 "Hg2 mi
11:40 PM
Mon, Apr 20
86 °FHaze.9 mph89%29.80 "Hg2 mi
11:10 PM86 °FHaze.7 mph89%29.83 "Hg2 mi
10:40 PM86 °FHaze.9 mph89%29.80 "Hg2 mi
10:10 PM86 °FHaze.6 mph84%29.80 "Hg2 mi
9:40 PM86 °FHaze.7 mph89%29.80 "Hg2 mi
9:10 PM88 °FHaze.8 mph79%29.77 "Hg2 mi
8:40 PM88 °FHaze.3 mph75%29.80 "Hg2 mi
8:10 PM86 °FHaze.No wind84%29.80 "Hg2 mi
7:40 PM86 °FHaze.No wind84%29.80 "Hg2 mi
7:10 PM86 °FHaze.8 mph84%29.77 "Hg2 mi
6:40 PM86 °FHaze.9 mph84%29.74 "Hg3 mi
6:10 PM88 °FHaze.7 mph79%29.74 "Hg3 mi
5:40 PM88 °FHaze.9 mph79%29.74 "Hg3 mi
5:10 PM88 °FHaze.10 mph75%29.74 "Hg3 mi
Weather by CustomWeather, © 2015

See weather overviewHow to use our weather pages